This is the latest recevied weather packets stored in our database for station/object KE8AFF-13. If no packets are shown the sender has not sent any weather packets the latest 1 day(s).
| Time | Temp. | Humidity | Pressure | Rain* | Wind** | Luminosity | Snow |
|---|---|---|---|---|---|---|---|
| 1778024445 | 11.67° C | 99% | 1007.1 hPa | 3.56 mm | 2.68 m/s, 350° | 0 W/m² | - |
| 1778024143 | 12.22° C | 99% | 1006.6 hPa | 1.27 mm | 1.34 m/s, 312° | 1 W/m² | - |
| 1778023840 | 12.22° C | 99% | 1006.3 hPa | 0 mm | 0.45 m/s, 183° | 7 W/m² | - |
| 1778023538 | 12.22° C | 99% | 1006.3 hPa | 0 mm | 0.45 m/s, 123° | 7 W/m² | - |
| 1778023235 | 12.22° C | 99% | 1006.7 hPa | 0 mm | 0.45 m/s, 175° | 8 W/m² | - |
| 1778022932 | 12.22° C | 99% | 1006.7 hPa | 0 mm | 0.45 m/s, 140° | 15 W/m² | - |
| 1778022631 | 12.22° C | 99% | 1006.8 hPa | 0 mm | 0.45 m/s, 196° | 25 W/m² | - |
| 1778022327 | 11.67° C | 99% | 1006.7 hPa | 0 mm | 0 m/s | 22 W/m² | - |
| 1778022024 | 11.67° C | 99% | 1006.8 hPa | 0 mm | 0.89 m/s, 97° | 14 W/m² | - |
| 1778021721 | 12.22° C | 99% | 1007 hPa | 0.51 mm | 0 m/s | 11 W/m² | - |
| 1778021417 | 12.22° C | 99% | 1007.2 hPa | 0.51 mm | 1.34 m/s, 7° | 10 W/m² | - |
| 1778021114 | 11.67° C | 99% | 1007.2 hPa | 1.27 mm | 0.45 m/s, 219° | 11 W/m² | - |
| 1778020811 | 12.22° C | 99% | 1007.5 hPa | 2.29 mm | 0.45 m/s, 289° | 16 W/m² | - |
| 1778020508 | 12.22° C | 99% | 1007.2 hPa | 2.29 mm | 1.79 m/s, 331° | 23 W/m² | - |
| 1778020216 | 12.78° C | 99% | 1007.2 hPa | 2.29 mm | 3.13 m/s, 302° | 24 W/m² | - |
| 1778019901 | 12.78° C | 99% | 1007.5 hPa | 3.05 mm | 1.34 m/s, 240° | 16 W/m² | - |
| 1778019596 | 14.44° C | 99% | 1007.5 hPa | 2.29 mm | 3.58 m/s, 347° | 7 W/m² | - |
| 1778019294 | 14.44° C | 99% | 1007.2 hPa | 3.05 mm | 0.89 m/s, 234° | 23 W/m² | - |
| 1778018991 | 14.44° C | 99% | 1007.2 hPa | 3.56 mm | 0.45 m/s, 194° | 40 W/m² | - |
| 1778018688 | 14.44° C | 99% | 1007.1 hPa | 1.27 mm | 1.34 m/s, 216° | 18 W/m² | - |
| 1778018385 | 14.44° C | 99% | 1007.4 hPa | 1.27 mm | 0.45 m/s, 222° | 39 W/m² | - |
| 1778018084 | 14.44° C | 99% | 1007.3 hPa | 1.27 mm | 0 m/s | 53 W/m² | - |
| 1778017781 | 14.44° C | 99% | 1007 hPa | 1.78 mm | 0.45 m/s, 224° | 43 W/m² | - |
| 1778017479 | 14.44° C | 99% | 1007 hPa | 2.29 mm | 0 m/s | 56 W/m² | - |
| 1778017176 | 14.44° C | 99% | 1007 hPa | 2.29 mm | 0.45 m/s, 219° | 59 W/m² | - |
* Rain latest hour (hover to see other rain measurements)
** Current wind speed in m/s (hover to see current wind gust speed)